Weather History for Tillamook, OR

Change the Weather History Date:

Wednesday, December 5, 2012

  Actual Average (KMMV) Record (KMMV)
Temperature  
Mean Temperature 44 °F 41 °F  
Max Temperature 50 °F 47 °F 60 °F (1925)
Min Temperature 39 °F 35 °F 17 °F (2013)
Degree Days  
Heating Degree Days 20 24  
Month to date heating degree days 118  
Since 1 July heating degree days 1340  
Cooling Degree Days 0 0  
Month to date cooling degree days 0  
Year to date cooling degree days 215  
Moisture  
Dew Point 42 °F    
Average Humidity 88    
Maximum Humidity 100    
Minimum Humidity 71    
Precipitation  
Precipitation 0.05 in 0.19 in 2.03 in (1981)
Month to date precipitation 0.96  
Year to date precipitation 34.61  
Sea Level Pressure  
Sea Level Pressure 30.18 in    
Wind  
Wind Speed 3 mph (SE)    
Max Wind Speed 7 mph    
Max Gust Speed -    
Visibility 10 miles    
Events Rain    
T = Trace of Precipitation, MM = Missing Value Source: NWS Daily Summary

Daily Weather History Graph

Daily Weather History Graph

Search for Another Location

Airport:

Trip Planner

Search our weather history database for the weather conditions in past years. The results will help you decide how hot, cold, wet, or windy it might be!

Date:

Astronomy

Dec. 05, 2012 Rise Set
Actual Time 8:39 AM MST 5:32 PM MST
Civil Twilight 8:06 AM MST 6:06 PM MST
Nautical Twilight 7:28 AM MST 6:43 PM MST
Astronomical Twilight 6:53 AM MST 7:19 PM MST
Moon No Moon Rise 12:52 PM MST (12/5)
Length of Visible Light 10h 00m
Length of Day
8h 52m
Waning Gibbous, 59% of the Moon is Illuminated
Dec 5
Waning Gibbous
Dec 6
Last Quarter
Dec 13
New
Dec 19
First Quarter
Dec 28
Full

Hourly Weather History & Observations

Time (MST) Temp. Windchill Dew Point Humidity Pressure Visibility Wind Dir Wind Speed Gust Speed Precip Events Conditions
12:15 AM 50.0 °F - 42.8 °F 76% 29.96 in 10.0 mi SW 3.5 mph - N/A   Overcast
12:55 AM 48.2 °F - 42.8 °F 82% 29.99 in 10.0 mi SSW 3.5 mph - N/A   Overcast
1:15 AM 48.2 °F - 42.8 °F 82% 29.99 in 10.0 mi South 3.5 mph - N/A   Overcast
1:35 AM 46.4 °F - 42.8 °F 87% 30.00 in 10.0 mi Calm Calm - N/A   Mostly Cloudy
1:55 AM 46.4 °F 44.3 °F 42.8 °F 87% 30.02 in 10.0 mi South 4.6 mph - N/A   Mostly Cloudy
2:15 AM 44.6 °F 42.2 °F 42.8 °F 93% 30.02 in 10.0 mi SSE 4.6 mph - N/A   Mostly Cloudy
2:35 AM 44.6 °F 41.4 °F 42.8 °F 93% 30.04 in 10.0 mi WSW 5.8 mph - N/A Rain Light Rain
2:55 AM 46.4 °F 45.2 °F 42.8 °F 87% 30.05 in 10.0 mi WSW 3.5 mph - N/A   Mostly Cloudy
3:15 AM 44.6 °F 43.1 °F 41.0 °F 87% 30.06 in 10.0 mi South 3.5 mph - N/A   Overcast
3:35 AM 44.6 °F 42.2 °F 42.8 °F 93% 30.07 in 10.0 mi SE 4.6 mph - N/A   Overcast
3:55 AM 44.6 °F 42.2 °F 42.8 °F 93% 30.09 in 10.0 mi SSE 4.6 mph - N/A   Light Drizzle
4:15 AM 44.6 °F 41.4 °F 42.8 °F 93% 30.09 in 10.0 mi SE 5.8 mph - N/A   Overcast
4:35 AM 44.6 °F 42.2 °F 41.0 °F 87% 30.10 in 10.0 mi SE 4.6 mph - N/A   Mostly Cloudy
4:55 AM 44.6 °F 42.2 °F 41.0 °F 87% 30.11 in 10.0 mi SE 4.6 mph - N/A   Mostly Cloudy
5:15 AM 44.6 °F 42.2 °F 41.0 °F 87% 30.11 in 10.0 mi SE 4.6 mph - N/A   Mostly Cloudy
5:35 AM 42.8 °F 40.1 °F 41.0 °F 93% 30.12 in 10.0 mi SE 4.6 mph - N/A   Mostly Cloudy
5:55 AM 42.8 °F 39.3 °F 41.0 °F 93% 30.12 in 10.0 mi SE 5.8 mph - N/A   Mostly Cloudy
7:35 AM 41.0 °F - 39.2 °F 93% 30.15 in 10.0 mi Calm Calm - N/A   Mostly Cloudy
7:55 AM 41.0 °F - 39.2 °F 93% 30.16 in 10.0 mi Calm Calm - N/A   Mostly Cloudy
8:15 AM 41.0 °F 39.0 °F 41.0 °F 100% 30.17 in 10.0 mi ESE 3.5 mph - N/A   Overcast
8:35 AM 41.0 °F 39.0 °F 39.2 °F 93% 30.18 in 10.0 mi East 3.5 mph - N/A   Scattered Clouds
8:55 AM 41.0 °F 39.0 °F 39.2 °F 93% 30.18 in 10.0 mi ESE 3.5 mph - N/A   Clear
9:15 AM 41.0 °F 38.0 °F 39.2 °F 93% 30.19 in 10.0 mi East 4.6 mph - N/A   Scattered Clouds
9:35 AM 42.8 °F - 41.0 °F 93% 30.20 in 10.0 mi Calm Calm - N/A   Light Drizzle
9:55 AM 42.8 °F - 41.0 °F 93% 30.21 in 10.0 mi Calm Calm - N/A   Overcast
10:15 AM 44.6 °F - 42.8 °F 93% 30.21 in 10.0 mi Calm Calm - N/A   Mostly Cloudy
10:35 AM 44.6 °F - 42.8 °F 93% 30.21 in 10.0 mi Calm Calm - N/A   Mostly Cloudy
10:55 AM 46.4 °F - 42.8 °F 87% 30.22 in 10.0 mi Calm Calm - N/A   Mostly Cloudy
11:15 AM 46.4 °F - 42.8 °F 87% 30.22 in 10.0 mi Calm Calm - N/A   Scattered Clouds
11:35 AM 46.4 °F - 41.0 °F 81% 30.23 in 7.0 mi Calm Calm - N/A   Mostly Cloudy
11:55 AM 48.2 °F - 42.8 °F 82% 30.23 in 10.0 mi Calm Calm - N/A   Mostly Cloudy
12:15 PM 48.2 °F - 42.8 °F 82% 30.24 in 10.0 mi West 5.8 mph - N/A   Overcast
12:35 PM 48.2 °F - 41.0 °F 76% 30.24 in 10.0 mi Calm Calm - 0.01 in Rain Light Rain
12:55 PM 48.2 °F - 41.0 °F 76% 30.23 in 10.0 mi Calm Calm - 0.01 in   Overcast
1:15 PM 48.2 °F - 41.0 °F 76% 30.23 in 5.0 mi Calm Calm - 0.01 in Rain Light Rain
1:55 PM 48.2 °F - 41.0 °F 76% 30.22 in 10.0 mi East 3.5 mph - 0.02 in   Mostly Cloudy
2:15 PM 48.2 °F - 41.0 °F 76% 30.22 in 10.0 mi ENE 4.6 mph - N/A   Scattered Clouds
2:35 PM 48.2 °F - 42.8 °F 82% 30.23 in 10.0 mi NE 3.5 mph - N/A   Clear
2:55 PM 48.2 °F - 42.8 °F 82% 30.22 in 10.0 mi NE 4.6 mph - N/A   Scattered Clouds
3:15 PM 48.2 °F - 42.8 °F 82% 30.22 in 10.0 mi NE 4.6 mph - N/A   Scattered Clouds
3:35 PM 48.2 °F - 42.8 °F 82% 30.21 in 10.0 mi NE 3.5 mph - N/A   Scattered Clouds
3:55 PM 50.0 °F - 42.8 °F 76% 30.21 in 10.0 mi Calm Calm - N/A   Clear
4:15 PM 50.0 °F - 41.0 °F 71% 30.21 in 10.0 mi Calm Calm - N/A   Clear
4:35 PM 50.0 °F - 42.8 °F 76% 30.22 in 10.0 mi NE 3.5 mph - N/A   Clear
4:55 PM 48.2 °F - 42.8 °F 82% 30.22 in 10.0 mi Calm Calm - N/A   Clear
5:15 PM 48.2 °F - 42.8 °F 82% 30.22 in 10.0 mi Calm Calm - N/A   Mostly Cloudy
5:35 PM 46.4 °F - 42.8 °F 87% 30.23 in 10.0 mi Calm Calm - N/A   Overcast
5:55 PM 46.4 °F - 42.8 °F 87% 30.23 in 10.0 mi Calm Calm - N/A   Drizzle
6:15 PM 46.4 °F 45.2 °F 42.8 °F 87% 30.24 in 10.0 mi North 3.5 mph - N/A   Drizzle
6:35 PM 46.4 °F 45.2 °F 42.8 °F 87% 30.23 in 10.0 mi NE 3.5 mph - N/A Rain Light Rain
6:55 PM 46.4 °F - 42.8 °F 87% 30.23 in 7.0 mi Calm Calm - 0.01 in Rain Rain
7:15 PM 46.4 °F 42.9 °F 42.8 °F 87% 30.23 in 10.0 mi East 6.9 mph - 0.01 in   Overcast
7:35 PM 44.6 °F - 42.8 °F 93% 30.24 in 10.0 mi Calm Calm - 0.01 in   Mostly Cloudy
7:55 PM 44.6 °F - 42.8 °F 93% 30.24 in 10.0 mi Calm Calm - 0.01 in   Overcast
8:15 PM 44.6 °F - 42.8 °F 93% 30.24 in 10.0 mi Calm Calm - N/A   Overcast
8:35 PM 44.6 °F - 42.8 °F 93% 30.24 in 10.0 mi Calm Calm - N/A   Mostly Cloudy
8:55 PM 42.8 °F - 42.8 °F 100% 30.25 in 7.0 mi Calm Calm - N/A   Overcast
9:15 PM 42.8 °F - 42.8 °F 100% 30.25 in 7.0 mi Calm Calm - N/A   Overcast
9:35 PM 42.8 °F 40.1 °F 41.0 °F 93% 30.25 in 7.0 mi SSE 4.6 mph - N/A   Scattered Clouds
9:55 PM 41.0 °F 38.0 °F 41.0 °F 100% 30.25 in 7.0 mi SSE 4.6 mph - N/A   Clear
10:15 PM 41.0 °F 39.0 °F 41.0 °F 100% 30.25 in 7.0 mi SE 3.5 mph - N/A   Scattered Clouds
10:35 PM 41.0 °F 39.0 °F 41.0 °F 100% 30.25 in 7.0 mi ESE 3.5 mph - N/A   Scattered Clouds
10:55 PM 41.0 °F - 41.0 °F 100% 30.26 in 10.0 mi Calm Calm - N/A   Clear
11:15 PM 41.0 °F 39.0 °F 41.0 °F 100% 30.25 in 10.0 mi SE 3.5 mph - N/A   Clear
11:35 PM 39.2 °F 37.0 °F 39.2 °F 100% 30.24 in 10.0 mi SE 3.5 mph - N/A   Scattered Clouds
11:55 PM 39.2 °F - 37.4 °F 93% 30.24 in 10.0 mi Calm Calm - N/A   Scattered Clouds